Date_Time,Julian_Date,Latitude,Longitude,Instrument_Depth,U,V,Speed,Direction
(yyyy-mm-dd hh:mn:ss UTC),(JD),(+ deg. North),(+ deg. East),(m),(cm/s),(cm/s),(cm/s),(deg True)
1988-04-15 00:30:00 UTC,2447266.520833,29.1167,-92.1433,0007,-6.38,-4.95,8.0751,232.1935
1988-04-15 01:00:00 UTC,2447266.541667,29.1167,-92.1433,0007,2.20,2.60,3.4059,40.2364
1988-04-15 01:30:00 UTC,2447266.562500,29.1167,-92.1433,0007,-7.60,-11.30,13.6180,213.9235
1988-04-15 02:00:00 UTC,2447266.583333,29.1167,-92.1433,0007,-6.05,-1.68,6.2789,254.4808
1988-04-15 02:30:00 UTC,2447266.604167,29.1167,-92.1433,0007,-8.15,3.15,8.7376,291.1317
1988-04-15 03:00:00 UTC,2447266.625000,29.1167,-92.1433,0007,-15.95,0.75,15.9676,272.6922
1988-04-15 03:30:00 UTC,2447266.645833,29.1167,-92.1433,0007,-2.45,-7.03,7.4447,199.2138
1988-04-15 04:00:00 UTC,2447266.666667,29.1167,-92.1433,0007,-15.28,12.23,19.5717,308.6735
1988-04-15 04:30:00 UTC,2447266.687500,29.1167,-92.1433,0007,-12.33,12.50,17.5579,315.3923
1988-04-15 05:00:00 UTC,2447266.708333,29.1167,-92.1433,0007,-9.28,3.75,10.0090,292.0034
1988-04-15 05:30:00 UTC,2447266.729167,29.1167,-92.1433,0007,-0.10,5.00,5.0010,358.8542
1988-04-15 06:00:00 UTC,2447266.750000,29.1167,-92.1433,0007,-12.18,4.13,12.8612,288.7308
1988-04-15 06:30:00 UTC,2447266.770833,29.1167,-92.1433,0007,4.10,2.68,4.8982,56.8290
1988-04-15 07:00:00 UTC,2447266.791667,29.1167,-92.1433,0007,-7.43,2.83,7.9507,290.8513
1988-04-15 07:30:00 UTC,2447266.812500,29.1167,-92.1433,0007,-5.48,-3.08,6.2862,240.6621
1988-04-15 08:00:00 UTC,2447266.833333,29.1167,-92.1433,0007,-4.50,-8.70,9.7949,207.3499
1988-04-15 08:30:00 UTC,2447266.854167,29.1167,-92.1433,0007,-0.28,-1.35,1.3787,191.7174
1988-04-15 09:00:00 UTC,2447266.875000,29.1167,-92.1433,0007,-2.23,-1.45,2.6600,236.9671
1988-04-15 09:30:00 UTC,2447266.895833,29.1167,-92.1433,0007,-1.13,-3.43,3.6113,198.2343
1988-04-15 10:00:00 UTC,2447266.916667,29.1167,-92.1433,0007,-0.90,-3.18,3.3049,195.8025
1988-04-15 10:30:00 UTC,2447266.937500,29.1167,-92.1433,0007,-8.73,-8.98,12.5241,224.1913
1988-04-15 11:00:00 UTC,2447266.958333,29.1167,-92.1433,0007,-8.33,-10.75,13.5997,217.7715
1988-04-15 11:30:00 UTC,2447266.979167,29.1167,-92.1433,0007,-15.78,-15.15,21.8753,226.1669
1988-04-15 12:00:00 UTC,2447267.000000,29.1167,-92.1433,0007,-6.23,1.58,6.4272,284.2308
1988-04-15 12:30:00 UTC,2447267.020833,29.1167,-92.1433,0007,-11.98,-0.18,11.9814,269.1392
1988-04-15 13:00:00 UTC,2447267.041667,29.1167,-92.1433,0007,-8.38,-2.05,8.6271,256.2537
1988-04-15 13:30:00 UTC,2447267.062500,29.1167,-92.1433,0007,-9.35,-4.75,10.4874,243.0685
1988-04-15 14:00:00 UTC,2447267.083333,29.1167,-92.1433,0007,-11.50,-5.63,12.8042,243.9153
1988-04-15 14:30:00 UTC,2447267.104167,29.1167,-92.1433,0007,-11.13,0.03,11.1300,270.1544
1988-04-15 15:00:00 UTC,2447267.125000,29.1167,-92.1433,0007,-13.38,1.23,13.4364,275.2523
1988-04-15 15:30:00 UTC,2447267.145833,29.1167,-92.1433,0007,-5.50,5.13,7.5211,313.0065
1988-04-15 16:00:00 UTC,2447267.166667,29.1167,-92.1433,0007,-9.48,2.25,9.7434,283.3516
1988-04-15 16:30:00 UTC,2447267.187500,29.1167,-92.1433,0007,-12.03,1.15,12.0848,275.4606
1988-04-15 17:00:00 UTC,2447267.208333,29.1167,-92.1433,0007,1.95,-0.13,1.9543,93.8141
1988-04-15 17:30:00 UTC,2447267.229167,29.1167,-92.1433,0007,-8.90,10.03,13.4094,318.4161
1988-04-15 18:00:00 UTC,2447267.250000,29.1167,-92.1433,0007,3.23,-1.95,3.7730,121.1200
1988-04-15 18:30:00 UTC,2447267.270833,29.1167,-92.1433,0007,4.68,-14.43,15.1699,162.0309
1988-04-15 19:00:00 UTC,2447267.291667,29.1167,-92.1433,0007,5.63,2.25,6.0630,68.2161
1988-04-15 19:30:00 UTC,2447267.312500,29.1167,-92.1433,0007,3.68,-2.03,4.2028,118.8825
1988-04-15 20:00:00 UTC,2447267.333333,29.1167,-92.1433,0007,3.03,4.53,5.4499,33.7775
1988-04-15 20:30:00 UTC,2447267.354167,29.1167,-92.1433,0007,2.02,0.98,2.2452,64.1197
1988-04-15 21:00:00 UTC,2447267.375000,29.1167,-92.1433,0007,-11.23,-11.43,16.0237,224.4943
1988-04-15 21:30:00 UTC,2447267.395833,29.1167,-92.1433,0007,14.38,-6.73,15.8769,115.0801
1988-04-15 22:00:00 UTC,2447267.416667,29.1167,-92.1433,0007,4.50,1.35,4.6981,73.3008
1988-04-15 22:30:00 UTC,2447267.437500,29.1167,-92.1433,0007,-2.68,-21.33,21.4977,187.1614
1988-04-15 23:00:00 UTC,2447267.458333,29.1167,-92.1433,0007,-18.73,-16.93,25.2475,227.8896
1988-04-15 23:30:00 UTC,2447267.479167,29.1167,-92.1433,0007,-1.43,-20.73,20.7793,183.9462
1988-04-16 00:00:00 UTC,2447267.500000,29.1167,-92.1433,0007,-14.20,4.55,14.9112,287.7666
1988-04-16 00:30:00 UTC,2447267.520833,29.1167,-92.1433,0007,-12.18,-13.43,18.1306,222.2057
1988-04-16 01:00:00 UTC,2447267.541667,29.1167,-92.1433,0007,-22.05,4.40,22.4847,281.2849
1988-04-16 01:30:00 UTC,2447267.562500,29.1167,-92.1433,0007,-29.73,2.15,29.8076,274.1363
1988-04-16 02:00:00 UTC,2447267.583333,29.1167,-92.1433,0007,-15.23,10.53,18.5158,304.6599
1988-04-16 02:30:00 UTC,2447267.604167,29.1167,-92.1433,0007,-35.45,8.60,36.4782,283.6362
1988-04-16 03:00:00 UTC,2447267.625000,29.1167,-92.1433,0007,-14.50,-0.10,14.5003,269.6049
1988-04-16 03:30:00 UTC,2447267.645833,29.1167,-92.1433,0007,-24.73,17.80,30.4699,305.7454
1988-04-16 04:00:00 UTC,2447267.666667,29.1167,-92.1433,0007,-20.43,24.03,31.5409,319.6292
1988-04-16 04:30:00 UTC,2447267.687500,29.1167,-92.1433,0007,-7.33,3.10,7.9586,292.9244
1988-04-16 05:00:00 UTC,2447267.708333,29.1167,-92.1433,0007,-18.03,14.63,23.2189,309.0568
1988-04-16 05:30:00 UTC,2447267.729167,29.1167,-92.1433,0007,-14.53,14.83,20.7617,315.5854
1988-04-16 06:00:00 UTC,2447267.750000,29.1167,-92.1433,0007,-3.20,24.18,24.3908,352.4612
1988-04-16 06:30:00 UTC,2447267.770833,29.1167,-92.1433,0007,-15.05,12.48,19.5513,309.6667
1988-04-16 07:00:00 UTC,2447267.791667,29.1167,-92.1433,0007,-10.90,19.10,21.9914,330.2874
1988-04-16 07:30:00 UTC,2447267.812500,29.1167,-92.1433,0007,-0.23,-4.73,4.7356,182.7839
1988-04-16 08:00:00 UTC,2447267.833333,29.1167,-92.1433,0007,-1.05,18.25,18.2802,356.7072
1988-04-16 08:30:00 UTC,2447267.854167,29.1167,-92.1433,0007,-22.38,5.23,22.9830,283.1534
1988-04-16 09:00:00 UTC,2447267.875000,29.1167,-92.1433,0007,-7.95,-13.68,15.8223,210.1626
1988-04-16 09:30:00 UTC,2447267.895833,29.1167,-92.1433,0007,3.80,-13.55,14.0728,164.3342
1988-04-16 10:00:00 UTC,2447267.916667,29.1167,-92.1433,0007,0.88,13.68,13.7083,3.6806
1988-04-16 10:30:00 UTC,2447267.937500,29.1167,-92.1433,0007,-14.58,-23.05,27.2741,212.3149
1988-04-16 11:00:00 UTC,2447267.958333,29.1167,-92.1433,0007,5.80,10.53,12.0217,28.8463
1988-04-16 11:30:00 UTC,2447267.979167,29.1167,-92.1433,0007,13.78,-6.85,15.3887,116.4318
1988-04-16 12:00:00 UTC,2447268.000000,29.1167,-92.1433,0007,-18.23,-21.13,27.9072,220.7861
1988-04-16 12:30:00 UTC,2447268.020833,29.1167,-92.1433,0007,11.45,-12.40,16.8779,137.2810
1988-04-16 13:00:00 UTC,2447268.041667,29.1167,-92.1433,0007,-23.48,-12.80,26.7423,241.4032
1988-04-16 13:30:00 UTC,2447268.062500,29.1167,-92.1433,0007,-5.78,-2.43,6.2700,247.1974
1988-04-16 14:00:00 UTC,2447268.083333,29.1167,-92.1433,0007,-22.78,-7.58,24.0080,251.5952
1988-04-16 14:30:00 UTC,2447268.104167,29.1167,-92.1433,0007,-21.55,-8.60,23.2026,248.2444
1988-04-16 15:00:00 UTC,2447268.125000,29.1167,-92.1433,0007,-24.50,-2.43,24.6202,264.3357
1988-04-16 15:30:00 UTC,2447268.145833,29.1167,-92.1433,0007,-31.10,8.48,32.2354,285.2520
1988-04-16 16:00:00 UTC,2447268.166667,29.1167,-92.1433,0007,-14.35,15.43,21.0715,317.0770
1988-04-16 16:30:00 UTC,2447268.187500,29.1167,-92.1433,0007,-18.63,3.80,19.0136,281.5286
1988-04-16 17:00:00 UTC,2447268.208333,29.1167,-92.1433,0007,-26.10,-4.45,26.4766,260.3242
1988-04-16 17:30:00 UTC,2447268.229167,29.1167,-92.1433,0007,-14.05,4.20,14.6643,286.6431
1988-04-16 18:00:00 UTC,2447268.250000,29.1167,-92.1433,0007,-18.57,6.43,19.6517,289.0988
1988-04-16 18:30:00 UTC,2447268.270833,29.1167,-92.1433,0007,-19.10,-14.88,24.2121,232.0794
1988-04-16 19:00:00 UTC,2447268.291667,29.1167,-92.1433,0007,-12.48,3.20,12.8837,284.3814
1988-04-16 19:30:00 UTC,2447268.312500,29.1167,-92.1433,0007,-10.53,2.78,10.8908,284.7891
1988-04-16 20:00:00 UTC,2447268.333333,29.1167,-92.1433,0007,2.60,-14.73,14.9577,169.9898
1988-04-16 20:30:00 UTC,2447268.354167,29.1167,-92.1433,0007,-5.48,7.03,8.9135,322.0630
1988-04-16 21:00:00 UTC,2447268.375000,29.1167,-92.1433,0007,-22.28,-9.58,24.2523,246.7332
1988-04-16 21:30:00 UTC,2447268.395833,29.1167,-92.1433,0007,-12.78,-5.48,13.9054,246.7906
1988-04-16 22:00:00 UTC,2447268.416667,29.1167,-92.1433,0007,-14.00,-3.15,14.3500,257.3196
1988-04-16 22:30:00 UTC,2447268.437500,29.1167,-92.1433,0007,-26.25,-14.70,30.0858,240.7512
1988-04-16 23:00:00 UTC,2447268.458333,29.1167,-92.1433,0007,-25.63,-7.78,26.7848,253.1143
1988-04-16 23:30:00 UTC,2447268.479167,29.1167,-92.1433,0007,-37.18,-21.78,43.0897,239.6383
1988-04-17 00:00:00 UTC,2447268.500000,29.1167,-92.1433,0007,-40.68,-10.05,41.9030,256.1230
1988-04-17 00:30:00 UTC,2447268.520833,29.1167,-92.1433,0007,-24.45,-15.50,28.9491,237.6275
1988-04-17 01:00:00 UTC,2447268.541667,29.1167,-92.1433,0007,-20.88,-23.05,31.1011,222.1721
1988-04-17 01:30:00 UTC,2447268.562500,29.1167,-92.1433,0007,-25.93,-25.68,36.4942,225.2775
1988-04-17 02:00:00 UTC,2447268.583333,29.1167,-92.1433,0007,-39.03,-14.50,41.6364,249.6195
1988-04-17 02:30:00 UTC,2447268.604167,29.1167,-92.1433,0007,-50.55,-0.07,50.5500,269.9207
1988-04-17 03:00:00 UTC,2447268.625000,29.1167,-92.1433,0007,-40.90,4.20,41.1151,275.8631
1988-04-17 03:30:00 UTC,2447268.645833,29.1167,-92.1433,0007,-46.85,-3.75,46.9998,265.4236
1988-04-17 04:00:00 UTC,2447268.666667,29.1167,-92.1433,0007,-52.08,1.95,52.1165,272.1443
1988-04-17 04:30:00 UTC,2447268.687500,29.1167,-92.1433,0007,-50.40,-7.38,50.9375,261.6695
1988-04-17 05:00:00 UTC,2447268.708333,29.1167,-92.1433,0007,-52.13,3.23,52.2300,273.5455
1988-04-17 05:30:00 UTC,2447268.729167,29.1167,-92.1433,0007,-44.00,12.23,45.6681,285.5335
1988-04-17 06:00:00 UTC,2447268.750000,29.1167,-92.1433,0007,-50.10,1.15,50.1132,271.3149
1988-04-17 06:30:00 UTC,2447268.770833,29.1167,-92.1433,0007,-39.95,9.28,41.0137,283.0773
1988-04-17 07:00:00 UTC,2447268.791667,29.1167,-92.1433,0007,-27.80,5.20,28.2821,280.5948
1988-04-17 07:30:00 UTC,2447268.812500,29.1167,-92.1433,0007,-29.08,5.03,29.5118,279.8134
1988-04-17 08:00:00 UTC,2447268.833333,29.1167,-92.1433,0007,-18.03,13.60,22.5841,307.0272
1988-04-17 08:30:00 UTC,2447268.854167,29.1167,-92.1433,0007,-10.48,-9.78,14.3345,226.9788
1988-04-17 09:00:00 UTC,2447268.875000,29.1167,-92.1433,0007,-12.85,2.45,13.0815,280.7946
1988-04-17 09:30:00 UTC,2447268.895833,29.1167,-92.1433,0007,-8.63,-13.73,16.2170,212.1515
1988-04-17 10:00:00 UTC,2447268.916667,29.1167,-92.1433,0007,-27.18,-6.53,27.9534,256.4907
1988-04-17 10:30:00 UTC,2447268.937500,29.1167,-92.1433,0007,-22.60,-8.65,24.1988,249.0560
1988-04-17 11:00:00 UTC,2447268.958333,29.1167,-92.1433,0007,-26.03,-25.40,36.3692,225.7018
1988-04-17 11:30:00 UTC,2447268.979167,29.1167,-92.1433,0007,-12.13,-33.50,35.6285,199.9048
1988-04-17 12:00:00 UTC,2447269.000000,29.1167,-92.1433,0007,-19.70,-37.50,42.3596,207.7144
1988-04-17 12:30:00 UTC,2447269.020833,29.1167,-92.1433,0007,-16.10,-33.03,36.7449,205.9863
1988-04-17 13:00:00 UTC,2447269.041667,29.1167,-92.1433,0007,-27.13,-27.43,38.5803,224.6850
1988-04-17 13:30:00 UTC,2447269.062500,29.1167,-92.1433,0007,-17.32,-4.25,17.8338,256.2131
1988-04-17 14:00:00 UTC,2447269.083333,29.1167,-92.1433,0007,-34.70,-20.98,40.5494,238.8424
1988-04-17 14:30:00 UTC,2447269.104167,29.1167,-92.1433,0007,-23.80,8.08,25.1342,288.7521
1988-04-17 15:00:00 UTC,2447269.125000,29.1167,-92.1433,0007,-8.73,-17.32,19.3958,206.7500
1988-04-17 15:30:00 UTC,2447269.145833,29.1167,-92.1433,0007,-34.70,-1.53,34.7337,267.4753
1988-04-17 16:00:00 UTC,2447269.166667,29.1167,-92.1433,0007,-33.08,-0.48,33.0835,269.1687
1988-04-17 16:30:00 UTC,2447269.187500,29.1167,-92.1433,0007,-37.90,-14.55,40.5970,248.9980
1988-04-17 17:00:00 UTC,2447269.208333,29.1167,-92.1433,0007,-35.53,-9.58,36.7989,254.9101
1988-04-17 17:30:00 UTC,2447269.229167,29.1167,-92.1433,0007,-32.30,-5.78,32.8131,259.8545
1988-04-17 18:00:00 UTC,2447269.250000,29.1167,-92.1433,0007,-37.98,-6.93,38.6071,259.6593
1988-04-17 18:30:00 UTC,2447269.270833,29.1167,-92.1433,0007,-42.75,-15.28,45.3987,250.3318
1988-04-17 19:00:00 UTC,2447269.291667,29.1167,-92.1433,0007,-32.45,3.63,32.6524,276.3828
1988-04-17 19:30:00 UTC,2447269.312500,29.1167,-92.1433,0007,-21.58,-14.43,25.9600,236.2304
1988-04-17 20:00:00 UTC,2447269.333333,29.1167,-92.1433,0007,-42.13,-7.88,42.8606,259.4058
1988-04-17 20:30:00 UTC,2447269.354167,29.1167,-92.1433,0007,-41.45,-9.93,42.6229,256.5278
1988-04-17 21:00:00 UTC,2447269.375000,29.1167,-92.1433,0007,-47.03,-27.60,54.5305,239.5931
1988-04-17 21:30:00 UTC,2447269.395833,29.1167,-92.1433,0007,-33.35,-9.90,34.7884,253.4664
1988-04-17 22:00:00 UTC,2447269.416667,29.1167,-92.1433,0007,-50.45,-10.90,51.6141,257.8083
1988-04-17 22:30:00 UTC,2447269.437500,29.1167,-92.1433,0007,-25.13,-12.48,28.0583,243.5902
1988-04-17 23:00:00 UTC,2447269.458333,29.1167,-92.1433,0007,-43.05,-14.95,45.5720,250.8494
1988-04-17 23:30:00 UTC,2447269.479167,29.1167,-92.1433,0007,-45.23,-9.83,46.2859,257.7384
1988-04-18 00:00:00 UTC,2447269.500000,29.1167,-92.1433,0007,-54.10,-18.70,57.2407,250.9320
1988-04-18 00:30:00 UTC,2447269.520833,29.1167,-92.1433,0007,-56.68,1.48,56.6993,271.4957
1988-04-18 01:00:00 UTC,2447269.541667,29.1167,-92.1433,0007,-54.15,0.98,54.1589,271.0368
1988-04-18 01:30:00 UTC,2447269.562500,29.1167,-92.1433,0007,-45.93,-0.68,45.9350,269.1518
1988-04-18 02:00:00 UTC,2447269.583333,29.1167,-92.1433,0007,-56.50,7.90,57.0496,277.9597
1988-04-18 02:30:00 UTC,2447269.604167,29.1167,-92.1433,0007,-31.30,4.13,31.5713,277.5167
1988-04-18 03:00:00 UTC,2447269.625000,29.1167,-92.1433,0007,-50.75,7.78,51.3429,278.7156
1988-04-18 03:30:00 UTC,2447269.645833,29.1167,-92.1433,0007,-41.00,15.45,43.8144,290.6479
1988-04-18 04:00:00 UTC,2447269.666667,29.1167,-92.1433,0007,-35.35,32.68,48.1415,312.7524
1988-04-18 04:30:00 UTC,2447269.687500,29.1167,-92.1433,0007,-28.53,-2.68,28.6556,264.6336
1988-04-18 05:00:00 UTC,2447269.708333,29.1167,-92.1433,0007,-40.10,-2.88,40.2033,265.8920
1988-04-18 05:30:00 UTC,2447269.729167,29.1167,-92.1433,0007,-34.98,18.30,39.4777,297.6166
1988-04-18 06:00:00 UTC,2447269.750000,29.1167,-92.1433,0007,-22.98,-18.03,29.2089,231.8824
1988-04-18 06:30:00 UTC,2447269.770833,29.1167,-92.1433,0007,-20.40,-3.23,20.6541,261.0029
1988-04-18 07:00:00 UTC,2447269.791667,29.1167,-92.1433,0007,-43.48,40.75,59.5909,313.1436
1988-04-18 07:30:00 UTC,2447269.812500,29.1167,-92.1433,0007,-40.73,7.33,41.3843,280.2021
1988-04-18 08:00:00 UTC,2447269.833333,29.1167,-92.1433,0007,-24.45,15.75,29.0838,302.7885
1988-04-18 08:30:00 UTC,2447269.854167,29.1167,-92.1433,0007,0.48,-11.20,11.2103,177.5460
1988-04-18 09:00:00 UTC,2447269.875000,29.1167,-92.1433,0007,16.68,53.08,55.6391,17.4449
1988-04-18 09:30:00 UTC,2447269.895833,29.1167,-92.1433,0007,-6.53,2.02,6.8353,287.1890
1988-04-18 10:00:00 UTC,2447269.916667,29.1167,-92.1433,0007,5.60,45.83,46.1709,6.9665
1988-04-18 10:30:00 UTC,2447269.937500,29.1167,-92.1433,0007,4.85,9.45,10.6219,27.1681
1988-04-18 11:00:00 UTC,2447269.958333,29.1167,-92.1433,0007,7.73,-29.00,30.0125,165.0747
1988-04-18 11:30:00 UTC,2447269.979167,29.1167,-92.1433,0007,7.38,-18.18,19.6208,157.9058
1988-04-18 12:00:00 UTC,2447270.000000,29.1167,-92.1433,0007,-8.20,-17.23,19.0817,205.4505
1988-04-18 12:30:00 UTC,2447270.020833,29.1167,-92.1433,0007,-13.40,-11.23,17.4835,230.0350
1988-04-18 13:00:00 UTC,2447270.041667,29.1167,-92.1433,0007,-7.93,-21.95,23.3385,199.8636
1988-04-18 13:30:00 UTC,2447270.062500,29.1167,-92.1433,0007,-9.18,-13.10,15.9963,215.0214
1988-04-18 14:00:00 UTC,2447270.083333,29.1167,-92.1433,0007,19.75,-24.88,31.7660,141.5571
1988-04-18 14:30:00 UTC,2447270.104167,29.1167,-92.1433,0007,-6.73,-21.85,22.8630,197.1193
1988-04-18 15:00:00 UTC,2447270.125000,29.1167,-92.1433,0007,6.43,-10.00,11.8889,147.2590
1988-04-18 15:30:00 UTC,2447270.145833,29.1167,-92.1433,0007,-7.55,10.05,12.5700,323.0845
1988-04-18 16:00:00 UTC,2447270.166667,29.1167,-92.1433,0007,-16.38,-12.08,20.3527,233.5918
1988-04-18 16:30:00 UTC,2447270.187500,29.1167,-92.1433,0007,-22.40,-33.18,40.0334,214.0235
1988-04-18 17:00:00 UTC,2447270.208333,29.1167,-92.1433,0007,-20.00,-1.18,20.0348,266.6235
1988-04-18 17:30:00 UTC,2447270.229167,29.1167,-92.1433,0007,-19.25,1.38,19.2994,274.1004
1988-04-18 18:00:00 UTC,2447270.250000,29.1167,-92.1433,0007,-8.10,-8.45,11.7052,223.7885
1988-04-18 18:30:00 UTC,2447270.270833,29.1167,-92.1433,0007,-17.90,3.30,18.2016,280.4456
1988-04-18 19:00:00 UTC,2447270.291667,29.1167,-92.1433,0007,-4.75,-9.20,10.3539,207.3075
1988-04-18 19:30:00 UTC,2447270.312500,29.1167,-92.1433,0007,-9.03,-14.50,17.0819,211.9129
1988-04-18 20:00:00 UTC,2447270.333333,29.1167,-92.1433,0007,-28.70,-5.38,29.1999,259.3828
1988-04-18 20:30:00 UTC,2447270.354167,29.1167,-92.1433,0007,-21.55,-14.08,25.7420,236.8408
1988-04-18 21:00:00 UTC,2447270.375000,29.1167,-92.1433,0007,-10.80,-5.05,11.9224,244.9396
1988-04-18 21:30:00 UTC,2447270.395833,29.1167,-92.1433,0007,-35.58,-6.05,36.0907,260.3498
1988-04-18 22:00:00 UTC,2447270.416667,29.1167,-92.1433,0007,-14.78,0.18,14.7811,270.6978
1988-04-18 22:30:00 UTC,2447270.437500,29.1167,-92.1433,0007,10.88,-26.45,28.6003,157.6405
1988-04-18 23:00:00 UTC,2447270.458333,29.1167,-92.1433,0007,-0.58,-6.80,6.8247,184.8752
1988-04-18 23:30:00 UTC,2447270.479167,29.1167,-92.1433,0007,-9.88,5.28,11.2024,298.1206
1988-04-19 00:00:00 UTC,2447270.500000,29.1167,-92.1433,0007,-17.78,-18.57,25.7094,223.7550
1988-04-19 00:30:00 UTC,2447270.520833,29.1167,-92.1433,0007,-27.25,5.83,27.8667,282.0761
1988-04-19 01:00:00 UTC,2447270.541667,29.1167,-92.1433,0007,-19.63,-26.83,33.2443,216.1908
1988-04-19 01:30:00 UTC,2447270.562500,29.1167,-92.1433,0007,-4.58,-14.60,15.3015,197.4166
1988-04-19 02:00:00 UTC,2447270.583333,29.1167,-92.1433,0007,-23.35,-13.38,26.9118,240.1865
1988-04-19 02:30:00 UTC,2447270.604167,29.1167,-92.1433,0007,-17.68,-26.70,32.0230,213.5114
1988-04-19 03:00:00 UTC,2447270.625000,29.1167,-92.1433,0007,-12.05,-7.70,14.3001,237.4213
1988-04-19 03:30:00 UTC,2447270.645833,29.1167,-92.1433,0007,-11.15,-9.38,14.5708,229.9276
1988-04-19 04:00:00 UTC,2447270.666667,29.1167,-92.1433,0007,-0.93,-2.50,2.6674,200.4052
1988-04-19 04:30:00 UTC,2447270.687500,29.1167,-92.1433,0007,-26.60,-10.30,28.5245,248.8327
1988-04-19 05:00:00 UTC,2447270.708333,29.1167,-92.1433,0007,-28.20,-6.33,28.9017,257.3486
1988-04-19 05:30:00 UTC,2447270.729167,29.1167,-92.1433,0007,-20.50,-18.32,27.4931,228.2142
1988-04-19 06:00:00 UTC,2447270.750000,29.1167,-92.1433,0007,-9.68,0.15,9.6812,270.8878
1988-04-19 06:30:00 UTC,2447270.770833,29.1167,-92.1433,0007,-5.33,11.43,12.6117,334.9996
1988-04-19 07:00:00 UTC,2447270.791667,29.1167,-92.1433,0007,-11.25,-3.73,11.8522,251.6568
1988-04-19 07:30:00 UTC,2447270.812500,29.1167,-92.1433,0007,-19.33,36.85,41.6122,332.3203
1988-04-19 08:00:00 UTC,2447270.833333,29.1167,-92.1433,0007,-22.98,17.75,29.0369,307.6829
1988-04-19 08:30:00 UTC,2447270.854167,29.1167,-92.1433,0007,-5.88,-15.40,16.4844,200.8978
1988-04-19 09:00:00 UTC,2447270.875000,29.1167,-92.1433,0007,-9.40,-5.33,10.8060,240.4459
1988-04-19 09:30:00 UTC,2447270.895833,29.1167,-92.1433,0007,13.00,3.53,13.4707,74.8083
1988-04-19 10:00:00 UTC,2447270.916667,29.1167,-92.1433,0007,-1.07,3.75,3.8997,344.0748
1988-04-19 10:30:00 UTC,2447270.937500,29.1167,-92.1433,0007,9.50,-9.98,13.7786,136.4115
1988-04-19 11:00:00 UTC,2447270.958333,29.1167,-92.1433,0007,22.55,-1.20,22.5819,93.0461
1988-04-19 11:30:00 UTC,2447270.979167,29.1167,-92.1433,0007,-22.68,0.43,22.6841,271.0862
1988-04-19 12:00:00 UTC,2447271.000000,29.1167,-92.1433,0007,-11.88,4.50,12.7037,290.7461
1988-04-19 12:30:00 UTC,2447271.020833,29.1167,-92.1433,0007,14.88,-30.68,34.0980,154.1263
1988-04-19 13:00:00 UTC,2447271.041667,29.1167,-92.1433,0007,9.10,-20.78,22.6852,156.3504
1988-04-19 13:30:00 UTC,2447271.062500,29.1167,-92.1433,0007,-4.30,18.98,19.4610,347.2349
1988-04-19 14:00:00 UTC,2447271.083333,29.1167,-92.1433,0007,21.93,-5.23,22.5450,103.4137
1988-04-19 14:30:00 UTC,2447271.104167,29.1167,-92.1433,0007,38.78,0.85,38.7893,88.7444
1988-04-19 15:00:00 UTC,2447271.125000,29.1167,-92.1433,0007,36.88,12.65,38.9892,71.0678
1988-04-19 15:30:00 UTC,2447271.145833,29.1167,-92.1433,0007,35.95,14.85,38.8963,67.5558
1988-04-19 16:00:00 UTC,2447271.166667,29.1167,-92.1433,0007,31.65,17.65,36.2387,60.8533
1988-04-19 16:30:00 UTC,2447271.187500,29.1167,-92.1433,0007,20.05,4.20,20.4852,78.1690
1988-04-19 17:00:00 UTC,2447271.208333,29.1167,-92.1433,0007,26.07,-4.60,26.4727,100.0067
1988-04-19 17:30:00 UTC,2447271.229167,29.1167,-92.1433,0007,11.68,-0.40,11.6868,91.9614
1988-04-19 18:00:00 UTC,2447271.250000,29.1167,-92.1433,0007,29.88,21.65,36.8990,54.0742
1988-04-19 18:30:00 UTC,2447271.270833,29.1167,-92.1433,0007,23.35,-5.93,24.0912,104.2497
1988-04-19 19:00:00 UTC,2447271.291667,29.1167,-92.1433,0007,27.43,10.63,29.4177,68.8171
1988-04-19 19:30:00 UTC,2447271.312500,29.1167,-92.1433,0007,26.05,10.13,27.9503,68.7505
1988-04-19 20:00:00 UTC,2447271.333333,29.1167,-92.1433,0007,31.25,-2.05,31.3172,93.7532
1988-04-19 20:30:00 UTC,2447271.354167,29.1167,-92.1433,0007,26.48,8.78,27.8976,71.6560
1988-04-19 21:00:00 UTC,2447271.375000,29.1167,-92.1433,0007,13.23,-8.60,15.7795,123.0254
1988-04-19 21:30:00 UTC,2447271.395833,29.1167,-92.1433,0007,18.43,-5.03,19.1041,105.2656
1988-04-19 22:00:00 UTC,2447271.416667,29.1167,-92.1433,0007,15.55,8.68,17.8086,60.8298
1988-04-19 22:30:00 UTC,2447271.437500,29.1167,-92.1433,0007,10.30,11.35,15.3269,42.2234
1988-04-19 23:00:00 UTC,2447271.458333,29.1167,-92.1433,0007,-9.10,-10.10,13.5949,222.0186
1988-04-19 23:30:00 UTC,2447271.479167,29.1167,-92.1433,0007,3.53,-7.93,8.6802,156.0040
1988-04-20 00:00:00 UTC,2447271.500000,29.1167,-92.1433,0007,1.20,-25.33,25.3584,177.2876
1988-04-20 00:30:00 UTC,2447271.520833,29.1167,-92.1433,0007,1.05,-23.70,23.7232,177.4632
1988-04-20 01:00:00 UTC,2447271.541667,29.1167,-92.1433,0007,24.58,7.63,25.7370,72.7549
1988-04-20 01:30:00 UTC,2447271.562500,29.1167,-92.1433,0007,-0.45,0.50,0.6727,318.0128
1988-04-20 02:00:00 UTC,2447271.583333,29.1167,-92.1433,0007,-1.75,8.03,8.2185,347.7056
1988-04-20 02:30:00 UTC,2447271.604167,29.1167,-92.1433,0007,10.78,-11.55,15.7991,136.9749
1988-04-20 03:00:00 UTC,2447271.625000,29.1167,-92.1433,0007,12.33,-6.05,13.7343,116.1359
1988-04-20 03:30:00 UTC,2447271.645833,29.1167,-92.1433,0007,7.55,-3.50,8.3218,114.8713
1988-04-20 04:00:00 UTC,2447271.666667,29.1167,-92.1433,0007,4.93,24.60,25.0891,11.3323
1988-04-20 04:30:00 UTC,2447271.687500,29.1167,-92.1433,0007,-2.53,-1.78,3.0934,234.8714
1988-04-20 05:00:00 UTC,2447271.708333,29.1167,-92.1433,0007,5.85,20.45,21.2703,15.9639
1988-04-20 05:30:00 UTC,2447271.729167,29.1167,-92.1433,0007,-4.48,14.85,15.5111,343.2123
1988-04-20 06:00:00 UTC,2447271.750000,29.1167,-92.1433,0007,7.10,-0.40,7.1113,93.2245
1988-04-20 06:30:00 UTC,2447271.770833,29.1167,-92.1433,0007,1.23,4.55,4.7133,15.1272
1988-04-20 07:00:00 UTC,2447271.791667,29.1167,-92.1433,0007,7.33,30.18,31.0574,13.6514
1988-04-20 07:30:00 UTC,2447271.812500,29.1167,-92.1433,0007,-5.75,26.05,26.6770,347.5527
1988-04-20 08:00:00 UTC,2447271.833333,29.1167,-92.1433,0007,0.00,-3.20,3.2000,180.0000
1988-04-20 08:30:00 UTC,2447271.854167,29.1167,-92.1433,0007,-6.85,13.78,15.3887,333.5681
1988-04-20 09:00:00 UTC,2447271.875000,29.1167,-92.1433,0007,8.15,12.85,15.2166,32.3846
1988-04-20 09:30:00 UTC,2447271.895833,29.1167,-92.1433,0007,4.58,12.15,12.9846,20.6542
1988-04-20 10:00:00 UTC,2447271.916667,29.1167,-92.1433,0007,-2.98,13.25,13.5810,347.3248
1988-04-20 10:30:00 UTC,2447271.937500,29.1167,-92.1433,0007,10.95,0.30,10.9541,88.4306
1988-04-20 11:00:00 UTC,2447271.958333,29.1167,-92.1433,0007,12.33,-3.53,12.8254,105.9761
1988-04-20 11:30:00 UTC,2447271.979167,29.1167,-92.1433,0007,10.13,-7.90,12.8463,127.9493
1988-04-20 12:00:00 UTC,2447272.000000,29.1167,-92.1433,0007,11.45,7.50,13.6877,56.7743